Time,TemperatureF,DewpointF,PressureIn,WindDirection,WindDirectionDegrees,WindSpeedMPH,WindSpeedGustMPH,Humidity,HourlyPrecipIn,Conditions,Clouds,dailyrainin,SoftwareType,DateUTC
2013-01-26 00:00:00,12.2,4.3,29.92,North,-999,0.0,0.0,70,0.00,,,0.00,pywws,2013-01-26 05:00:00,
2013-01-26 00:01:00,12.2,4.3,29.91,North,-999,0.0,0.0,70,0.00,,,0.00,pywws,2013-01-26 05:01:00,
2013-01-26 00:02:00,12.2,4.3,29.92,North,-999,0.0,0.0,70,0.00,,,0.00,pywws,2013-01-26 05:02:00,
2013-01-26 00:04:00,12.0,4.5,29.92,North,-999,0.0,0.0,71,0.00,,,0.00,pywws,2013-01-26 05:04:00,
2013-01-26 00:10:00,11.8,4.3,29.91,North,-999,0.0,0.0,71,0.00,,,0.00,pywws,2013-01-26 05:10:00,
2013-01-26 00:15:00,11.5,3.6,29.91,North,-999,0.0,0.0,70,0.00,,,0.00,pywws,2013-01-26 05:15:00,
2013-01-26 00:21:00,11.5,3.6,29.91,North,-999,0.0,0.0,70,0.00,,,0.00,pywws,2013-01-26 05:21:00,
2013-01-26 00:26:00,11.3,3.5,29.91,North,-999,0.0,0.0,70,0.00,,,0.00,pywws,2013-01-26 05:26:00,
2013-01-26 00:32:00,10.9,3.1,29.91,North,-999,0.0,0.0,70,0.00,,,0.00,pywws,2013-01-26 05:32:00,
2013-01-26 00:38:00,10.9,3.1,29.91,North,-999,0.0,0.0,70,0.00,,,0.00,pywws,2013-01-26 05:38:00,
2013-01-26 00:43:00,11.1,3.3,29.92,North,-999,0.0,0.0,70,0.00,,,0.00,pywws,2013-01-26 05:43:00,
2013-01-26 00:49:00,11.3,3.5,29.91,North,-999,0.0,0.0,70,0.00,,,0.00,pywws,2013-01-26 05:49:00,
2013-01-26 00:54:00,11.7,3.8,29.91,North,-999,0.0,0.0,70,0.00,,,0.00,pywws,2013-01-26 05:54:00,
2013-01-26 01:00:00,11.8,4.3,29.91,North,-999,0.0,0.7,71,0.00,,,0.00,pywws,2013-01-26 06:00:00,
2013-01-26 01:06:00,11.8,4.3,29.91,North,0,0.7,1.6,71,0.00,,,0.00,pywws,2013-01-26 06:06:00,
2013-01-26 01:11:00,11.5,3.6,29.91,North,-999,0.0,1.6,70,0.00,,,0.00,pywws,2013-01-26 06:11:00,
2013-01-26 01:17:00,11.5,3.6,29.91,NE,45,0.7,1.6,70,0.00,,,0.00,pywws,2013-01-26 06:17:00,
2013-01-26 01:22:00,11.5,3.6,29.91,North,-999,0.0,0.7,70,0.00,,,0.00,pywws,2013-01-26 06:22:00,
2013-01-26 01:28:00,11.3,3.5,29.91,NE,45,0.7,1.6,70,0.00,,,0.00,pywws,2013-01-26 06:28:00,
2013-01-26 01:34:00,11.1,3.3,29.91,NE,45,1.6,1.6,70,0.00,,,0.00,pywws,2013-01-26 06:34:00,
2013-01-26 01:39:00,10.9,2.8,29.90,NE,45,0.7,1.6,69,0.00,,,0.00,pywws,2013-01-26 06:39:00,
2013-01-26 01:45:00,10.8,2.6,29.90,North,-999,0.0,0.7,69,0.00,,,0.00,pywws,2013-01-26 06:45:00,
2013-01-26 01:50:00,10.6,2.5,29.90,North,-999,0.0,0.0,69,0.00,,,0.00,pywws,2013-01-26 06:50:00,
2013-01-26 01:56:00,10.4,2.3,29.90,North,-999,0.0,0.0,69,0.00,,,0.00,pywws,2013-01-26 06:56:00,
2013-01-26 02:02:00,10.2,0.8,29.90,North,-999,0.0,0.0,65,0.00,,,0.00,pywws,2013-01-26 07:02:00,
2013-01-26 02:07:00,9.9,0.5,29.90,North,-999,0.0,0.0,65,0.00,,,0.00,pywws,2013-01-26 07:07:00,
2013-01-26 02:13:00,9.9,0.5,29.90,North,-999,0.0,0.7,65,0.00,,,0.00,pywws,2013-01-26 07:13:00,
2013-01-26 02:18:00,10.2,0.8,29.90,North,-999,0.0,0.0,65,0.00,,,0.00,pywws,2013-01-26 07:18:00,
2013-01-26 02:24:00,10.2,0.8,29.89,North,-999,0.0,0.0,65,0.00,,,0.00,pywws,2013-01-26 07:24:00,
2013-01-26 02:30:00,10.0,0.7,29.89,NW,315,0.7,1.6,65,0.00,,,0.00,pywws,2013-01-26 07:30:00,
2013-01-26 02:35:00,9.9,0.5,29.89,North,-999,0.0,0.7,65,0.00,,,0.00,pywws,2013-01-26 07:35:00,
2013-01-26 02:41:00,9.7,0.3,29.89,NE,45,0.7,1.6,65,0.00,,,0.00,pywws,2013-01-26 07:41:00,
2013-01-26 02:46:00,9.7,0.3,29.89,NE,45,0.7,1.6,65,0.00,,,0.00,pywws,2013-01-26 07:46:00,
2013-01-26 02:52:00,9.7,0.6,29.89,North,-999,0.0,0.7,66,0.00,,,0.00,pywws,2013-01-26 07:52:00,
2013-01-26 02:58:00,9.9,0.8,29.89,North,-999,0.0,0.7,66,0.00,,,0.00,pywws,2013-01-26 07:58:00,
2013-01-26 03:03:00,10.0,1.0,29.88,North,-999,0.0,0.7,66,0.00,,,0.00,pywws,2013-01-26 08:03:00,
2013-01-26 03:09:00,10.2,1.2,29.89,North,-999,0.0,0.0,66,0.00,,,0.00,pywws,2013-01-26 08:09:00,
2013-01-26 03:14:00,10.2,1.2,29.88,North,-999,0.0,0.7,66,0.00,,,0.00,pywws,2013-01-26 08:14:00,
2013-01-26 03:20:00,10.6,2.8,29.88,NE,45,0.7,1.6,70,0.00,,,0.00,pywws,2013-01-26 08:20:00,
2013-01-26 03:26:00,10.6,2.8,29.88,NE,45,0.7,1.6,70,0.00,,,0.00,pywws,2013-01-26 08:26:00,
2013-01-26 03:31:00,10.6,2.5,29.88,North,-999,0.0,0.0,69,0.00,,,0.00,pywws,2013-01-26 08:31:00,
2013-01-26 03:37:00,10.6,2.5,29.88,North,-999,0.0,0.7,69,0.00,,,0.00,pywws,2013-01-26 08:37:00,
2013-01-26 03:42:00,10.6,2.5,29.88,NE,45,0.7,1.6,69,0.00,,,0.00,pywws,2013-01-26 08:42:00,
2013-01-26 03:48:00,10.2,0.5,29.88,NE,45,0.7,1.6,64,0.00,,,0.00,pywws,2013-01-26 08:48:00,
2013-01-26 03:54:00,10.2,0.5,29.88,NE,45,0.7,1.6,64,0.00,,,0.00,pywws,2013-01-26 08:54:00,
2013-01-26 03:59:00,10.2,0.5,29.88,North,-999,0.0,1.6,64,0.00,,,0.00,pywws,2013-01-26 08:59:00,
2013-01-26 04:05:00,10.2,0.5,29.88,North,-999,0.0,0.0,64,0.00,,,0.00,pywws,2013-01-26 09:05:00,
2013-01-26 04:10:00,10.0,0.3,29.88,NE,45,0.7,1.6,64,0.00,,,0.00,pywws,2013-01-26 09:10:00,
2013-01-26 04:16:00,10.0,0.3,29.88,NE,45,0.7,1.6,64,0.00,,,0.00,pywws,2013-01-26 09:16:00,
2013-01-26 04:22:00,10.2,0.5,29.88,North,0,0.7,1.6,64,0.00,,,0.00,pywws,2013-01-26 09:22:00,
2013-01-26 04:27:00,10.2,0.5,29.88,North,-999,0.0,1.6,64,0.00,,,0.00,pywws,2013-01-26 09:27:00,
2013-01-26 04:33:00,10.0,0.3,29.88,NE,45,0.7,1.6,64,0.00,,,0.00,pywws,2013-01-26 09:33:00,
2013-01-26 04:38:00,9.9,0.5,29.88,NW,315,0.7,1.6,65,0.00,,,0.00,pywws,2013-01-26 09:38:00,
2013-01-26 04:44:00,9.9,0.5,29.88,North,-999,0.0,0.7,65,0.00,,,0.00,pywws,2013-01-26 09:44:00,
2013-01-26 04:50:00,9.7,0.3,29.88,North,0,0.7,1.6,65,0.00,,,0.00,pywws,2013-01-26 09:50:00,
2013-01-26 04:55:00,9.7,0.3,29.88,North,-999,0.0,1.6,65,0.00,,,0.00,pywws,2013-01-26 09:55:00,
2013-01-26 05:01:00,9.7,0.3,29.88,North,0,0.7,1.6,65,0.00,,,0.00,pywws,2013-01-26 10:01:00,
2013-01-26 05:06:00,9.5,0.1,29.88,North,-999,0.0,1.6,65,0.00,,,0.00,pywws,2013-01-26 10:06:00,
2013-01-26 05:12:00,9.3,0.0,29.89,North,-999,0.0,0.7,65,0.00,,,0.00,pywws,2013-01-26 10:12:00,
2013-01-26 05:18:00,9.3,0.0,29.89,North,-999,0.0,0.7,65,0.00,,,0.00,pywws,2013-01-26 10:18:00,
2013-01-26 05:23:00,9.5,0.5,29.89,North,-999,0.0,1.6,66,0.00,,,0.00,pywws,2013-01-26 10:23:00,
2013-01-26 05:29:00,9.7,0.6,29.89,NE,45,0.7,2.2,66,0.00,,,0.00,pywws,2013-01-26 10:29:00,
2013-01-26 05:34:00,9.9,0.8,29.89,NE,45,0.7,1.6,66,0.00,,,0.00,pywws,2013-01-26 10:34:00,
2013-01-26 05:40:00,9.9,0.8,29.89,NW,315,1.6,3.1,66,0.00,,,0.00,pywws,2013-01-26 10:40:00,
2013-01-26 05:46:00,10.0,1.0,29.89,North,-999,0.0,0.0,66,0.00,,,0.00,pywws,2013-01-26 10:46:00,
2013-01-26 05:51:00,10.0,1.0,29.90,North,-999,0.0,0.7,66,0.00,,,0.00,pywws,2013-01-26 10:51:00,
2013-01-26 05:57:00,10.0,1.0,29.90,North,-999,0.0,0.0,66,0.00,,,0.00,pywws,2013-01-26 10:57:00,
2013-01-26 06:02:00,9.9,0.5,29.90,North,-999,0.0,0.0,65,0.00,,,0.00,pywws,2013-01-26 11:02:00,
2013-01-26 06:08:00,9.7,0.3,29.91,North,-999,0.0,1.6,65,0.00,,,0.00,pywws,2013-01-26 11:08:00,
2013-01-26 06:14:00,9.9,0.5,29.91,North,-999,0.0,0.0,65,0.00,,,0.00,pywws,2013-01-26 11:14:00,
2013-01-26 06:19:00,9.9,0.5,29.91,North,-999,0.0,0.0,65,0.00,,,0.00,pywws,2013-01-26 11:19:00,
2013-01-26 06:25:00,9.7,0.3,29.91,North,-999,0.0,0.7,65,0.00,,,0.00,pywws,2013-01-26 11:25:00,
2013-01-26 06:30:00,9.7,0.3,29.91,North,-999,0.0,0.0,65,0.00,,,0.00,pywws,2013-01-26 11:30:00,
2013-01-26 06:36:00,9.9,0.5,29.92,North,-999,0.0,0.7,65,0.00,,,0.00,pywws,2013-01-26 11:36:00,
2013-01-26 06:42:00,9.7,0.3,29.93,NNE,22,0.7,1.6,65,0.00,,,0.00,pywws,2013-01-26 11:42:00,
2013-01-26 06:47:00,9.5,0.1,29.92,North,-999,0.0,0.0,65,0.00,,,0.00,pywws,2013-01-26 11:47:00,
2013-01-26 06:53:00,9.5,-0.2,29.92,North,-999,0.0,0.7,64,0.00,,,0.00,pywws,2013-01-26 11:53:00,
2013-01-26 06:58:00,9.5,-0.2,29.92,North,-999,0.0,0.7,64,0.00,,,0.00,pywws,2013-01-26 11:58:00,
2013-01-26 07:04:00,9.5,-0.2,29.93,North,-999,0.0,0.0,64,0.00,,,0.00,pywws,2013-01-26 12:04:00,
2013-01-26 07:10:00,9.7,0.0,29.93,North,-999,0.0,0.7,64,0.00,,,0.00,pywws,2013-01-26 12:10:00,
2013-01-26 07:15:00,9.9,0.2,29.93,North,-999,0.0,0.0,64,0.00,,,0.00,pywws,2013-01-26 12:15:00,
2013-01-26 07:21:00,9.9,0.2,29.93,North,-999,0.0,1.6,64,0.00,,,0.00,pywws,2013-01-26 12:21:00,
2013-01-26 07:26:00,9.9,0.2,29.94,North,-999,0.0,0.0,64,0.00,,,0.00,pywws,2013-01-26 12:26:00,
2013-01-26 07:32:00,9.9,0.2,29.94,North,0,0.7,1.6,64,0.00,,,0.00,pywws,2013-01-26 12:32:00,
2013-01-26 07:38:00,9.9,-0.2,29.95,North,-999,0.0,0.0,63,0.00,,,0.00,pywws,2013-01-26 12:38:00,
2013-01-26 07:43:00,10.0,0.0,29.95,North,-999,0.0,0.0,63,0.00,,,0.00,pywws,2013-01-26 12:43:00,
2013-01-26 07:49:00,10.0,0.0,29.95,NE,45,0.7,1.6,63,0.00,,,0.00,pywws,2013-01-26 12:49:00,
2013-01-26 07:54:00,10.2,0.2,29.95,North,-999,0.0,0.0,63,0.00,,,0.00,pywws,2013-01-26 12:54:00,
2013-01-26 08:00:00,10.2,0.2,29.96,North,-999,0.0,0.0,63,0.00,,,0.00,pywws,2013-01-26 13:00:00,
2013-01-26 08:06:00,10.4,1.6,29.96,North,0,0.7,0.7,67,0.00,,,0.00,pywws,2013-01-26 13:06:00,
2013-01-26 08:11:00,10.6,1.8,29.96,North,-999,0.0,0.0,67,0.00,,,0.00,pywws,2013-01-26 13:11:00,
2013-01-26 08:17:00,10.6,1.8,29.96,North,-999,0.0,0.0,67,0.00,,,0.00,pywws,2013-01-26 13:17:00,
2013-01-26 08:22:00,10.8,2.0,29.97,NW,315,0.7,1.6,67,0.00,,,0.00,pywws,2013-01-26 13:22:00,
2013-01-26 08:28:00,10.9,2.2,29.97,North,0,0.7,1.6,67,0.00,,,0.00,pywws,2013-01-26 13:28:00,
2013-01-26 08:34:00,11.1,2.3,29.98,North,-999,0.0,1.6,67,0.00,,,0.00,pywws,2013-01-26 13:34:00,
2013-01-26 08:39:00,11.3,2.5,29.98,North,0,0.7,1.6,67,0.00,,,0.00,pywws,2013-01-26 13:39:00,
2013-01-26 08:45:00,11.7,2.9,29.98,NW,315,0.7,1.6,67,0.00,,,0.00,pywws,2013-01-26 13:45:00,
2013-01-26 08:50:00,12.0,3.2,29.98,NW,315,0.7,1.6,67,0.00,,,0.00,pywws,2013-01-26 13:50:00,
2013-01-26 08:56:00,12.4,3.2,29.98,NE,45,0.7,3.1,66,0.00,,,0.00,pywws,2013-01-26 13:56:00,
2013-01-26 09:02:00,12.7,3.2,29.98,East,90,1.6,2.2,65,0.00,,,0.00,pywws,2013-01-26 14:02:00,
2013-01-26 09:07:00,13.1,3.2,29.99,NW,315,0.7,1.6,64,0.00,,,0.00,pywws,2013-01-26 14:07:00,
2013-01-26 09:13:00,13.5,3.6,29.99,NW,315,0.7,1.6,64,0.00,,,0.00,pywws,2013-01-26 14:13:00,
2013-01-26 09:18:00,16.2,5.5,29.99,North,-999,0.0,1.6,62,0.00,,,0.00,pywws,2013-01-26 14:18:00,
2013-01-26 09:24:00,19.0,6.0,30.00,North,0,0.7,1.6,56,0.00,,,0.00,pywws,2013-01-26 14:24:00,
2013-01-26 09:30:00,19.8,6.6,30.00,North,0,0.7,1.6,56,0.00,,,0.00,pywws,2013-01-26 14:30:00,
2013-01-26 09:35:00,20.5,6.5,30.00,North,-999,0.0,1.6,54,0.00,,,0.00,pywws,2013-01-26 14:35:00,
2013-01-26 09:41:00,23.2,7.3,30.00,North,0,0.7,2.2,50,0.00,,,0.00,pywws,2013-01-26 14:41:00,
2013-01-26 09:46:00,26.6,8.2,30.01,NW,315,2.2,3.1,45,0.00,,,0.00,pywws,2013-01-26 14:46:00,
2013-01-26 09:52:00,25.3,5.5,30.01,North,-999,0.0,1.6,42,0.00,,,0.00,pywws,2013-01-26 14:52:00,
2013-01-26 09:58:00,22.6,4.0,30.01,NW,315,1.6,2.2,44,0.00,,,0.00,pywws,2013-01-26 14:58:00,
2013-01-26 10:03:00,21.2,3.2,30.02,West,270,2.2,3.8,45,0.00,,,0.00,pywws,2013-01-26 15:03:00,
2013-01-26 10:09:00,21.9,4.3,30.02,NW,315,1.6,2.2,46,0.00,,,0.00,pywws,2013-01-26 15:09:00,
2013-01-26 10:14:00,22.8,5.2,30.02,North,0,0.7,2.2,46,0.00,,,0.00,pywws,2013-01-26 15:14:00,
2013-01-26 10:20:00,23.4,5.2,30.02,South,180,3.1,4.5,45,0.00,,,0.00,pywws,2013-01-26 15:20:00,
2013-01-26 10:26:00,21.4,3.4,30.02,North,0,2.2,3.8,45,0.00,,,0.00,pywws,2013-01-26 15:26:00,
2013-01-26 10:31:00,21.2,3.7,30.02,North,0,1.6,2.2,46,0.00,,,0.00,pywws,2013-01-26 15:31:00,
2013-01-26 10:37:00,21.7,4.7,30.02,NW,315,0.7,2.2,47,0.00,,,0.00,pywws,2013-01-26 15:37:00,
2013-01-26 10:42:00,22.6,5.0,30.02,NW,315,1.6,2.2,46,0.00,,,0.00,pywws,2013-01-26 15:42:00,
2013-01-26 10:48:00,23.2,5.0,30.02,West,270,0.7,0.7,45,0.00,,,0.00,pywws,2013-01-26 15:48:00,
2013-01-26 10:54:00,24.3,5.5,30.01,North,0,1.6,2.2,44,0.00,,,0.00,pywws,2013-01-26 15:54:00,
2013-01-26 10:59:00,24.1,5.4,30.02,NW,315,1.6,3.1,44,0.00,,,0.00,pywws,2013-01-26 15:59:00,
2013-01-26 11:05:00,24.1,5.4,30.02,NE,45,2.2,3.1,44,0.00,,,0.00,pywws,2013-01-26 16:05:00,
2013-01-26 11:10:00,23.4,4.7,30.01,NW,315,1.6,3.1,44,0.00,,,0.00,pywws,2013-01-26 16:10:00,
2013-01-26 11:16:00,22.3,4.7,30.02,NW,315,2.2,4.5,46,0.00,,,0.00,pywws,2013-01-26 16:16:00,
2013-01-26 11:22:00,22.1,5.0,30.01,NW,315,1.6,2.2,47,0.00,,,0.00,pywws,2013-01-26 16:22:00,
2013-01-26 11:27:00,22.6,5.5,30.01,NE,45,1.6,3.8,47,0.00,,,0.00,pywws,2013-01-26 16:27:00,
2013-01-26 11:33:00,24.6,7.3,30.01,NW,315,2.2,4.5,47,0.00,,,0.00,pywws,2013-01-26 16:33:00,
2013-01-26 11:38:00,24.6,5.9,30.01,NW,315,1.6,2.2,44,0.00,,,0.00,pywws,2013-01-26 16:38:00,
2013-01-26 11:44:00,25.0,5.2,30.01,NNW,338,1.6,3.1,42,0.00,,,0.00,pywws,2013-01-26 16:44:00,
2013-01-26 11:50:00,23.7,4.5,30.01,North,0,2.2,4.5,43,0.00,,,0.00,pywws,2013-01-26 16:50:00,
2013-01-26 11:55:00,22.5,4.4,30.01,North,0,2.2,4.5,45,0.00,,,0.00,pywws,2013-01-26 16:55:00,
2013-01-26 12:01:00,23.0,4.4,30.02,North,0,1.6,3.1,44,0.00,,,0.00,pywws,2013-01-26 17:01:00,
2013-01-26 12:06:00,24.3,5.5,30.01,North,0,2.2,3.8,44,0.00,,,0.00,pywws,2013-01-26 17:06:00,
2013-01-26 12:12:00,24.8,5.0,30.00,NW,315,2.2,3.1,42,0.00,,,0.00,pywws,2013-01-26 17:12:00,
2013-01-26 12:18:00,24.8,5.0,30.00,NW,315,2.2,3.8,42,0.00,,,0.00,pywws,2013-01-26 17:18:00,
2013-01-26 12:23:00,25.2,3.7,30.00,North,0,1.6,3.8,39,0.00,,,0.00,pywws,2013-01-26 17:23:00,
2013-01-26 12:29:00,26.8,6.3,30.00,NW,315,3.1,4.5,41,0.00,,,0.00,pywws,2013-01-26 17:29:00,
2013-01-26 12:34:00,27.3,4.5,29.99,NW,315,3.1,5.4,37,0.00,,,0.00,pywws,2013-01-26 17:34:00,
2013-01-26 12:40:00,27.1,1.9,29.99,NW,315,3.1,4.5,33,0.00,,,0.00,pywws,2013-01-26 17:40:00,
2013-01-26 12:46:00,29.1,6.7,29.99,NE,45,3.8,5.4,38,0.00,,,0.00,pywws,2013-01-26 17:46:00,
2013-01-26 12:51:00,28.9,6.6,29.98,NW,315,3.1,4.5,38,0.00,,,0.00,pywws,2013-01-26 17:51:00,
2013-01-26 12:57:00,30.0,6.3,29.98,West,270,3.1,4.5,36,0.00,,,0.00,pywws,2013-01-26 17:57:00,
2013-01-26 13:02:00,30.9,5.9,29.98,West,270,2.2,3.1,34,0.00,,,0.00,pywws,2013-01-26 18:02:00,
2013-01-26 13:08:00,31.8,8.5,29.97,NE,45,2.2,3.8,37,0.00,,,0.00,pywws,2013-01-26 18:08:00,
2013-01-26 13:14:00,31.1,5.4,29.98,SSW,202,1.6,3.1,33,0.00,,,0.00,pywws,2013-01-26 18:14:00,
2013-01-26 13:19:00,31.5,6.4,29.97,North,0,2.2,3.8,34,0.00,,,0.00,pywws,2013-01-26 18:19:00,
2013-01-26 13:25:00,32.2,8.3,29.97,North,0,3.1,3.8,36,0.01,,,0.01,pywws,2013-01-26 18:25:00,
2013-01-26 13:30:00,32.5,8.0,29.98,NW,315,1.6,3.1,35,0.01,,,0.01,pywws,2013-01-26 18:30:00,
2013-01-26 13:36:00,31.3,6.2,29.99,North,0,2.2,3.8,34,0.01,,,0.01,pywws,2013-01-26 18:36:00,
2013-01-26 13:42:00,32.0,6.8,29.99,NW,315,3.1,5.4,34,0.01,,,0.01,pywws,2013-01-26 18:42:00,
2013-01-26 13:47:00,30.2,4.6,29.98,North,0,2.2,3.1,33,0.01,,,0.01,pywws,2013-01-26 18:47:00,
2013-01-26 13:53:00,31.1,8.5,29.98,SW,225,0.7,2.2,38,0.02,,,0.02,pywws,2013-01-26 18:53:00,
2013-01-26 13:58:00,31.8,6.7,29.99,NW,315,3.1,4.5,34,0.02,,,0.02,pywws,2013-01-26 18:58:00,
2013-01-26 14:04:00,31.8,7.9,29.99,West,270,2.2,3.8,36,0.02,,,0.02,pywws,2013-01-26 19:04:00,
2013-01-26 14:10:00,32.2,6.3,29.98,North,0,2.2,3.8,33,0.02,,,0.02,pywws,2013-01-26 19:10:00,
2013-01-26 14:15:00,33.1,6.5,29.98,West,270,2.2,3.1,32,0.02,,,0.02,pywws,2013-01-26 19:15:00,
2013-01-26 14:21:00,33.1,7.1,29.99,NW,315,1.6,2.2,33,0.02,,,0.02,pywws,2013-01-26 19:21:00,
2013-01-26 14:26:00,33.4,4.6,29.99,North,0,2.2,3.8,29,0.01,,,0.02,pywws,2013-01-26 19:26:00,
2013-01-26 14:32:00,33.4,3.1,29.99,West,270,3.1,3.8,27,0.01,,,0.02,pywws,2013-01-26 19:32:00,
2013-01-26 14:38:00,33.1,3.6,30.00,NW,315,2.2,3.1,28,0.01,,,0.02,pywws,2013-01-26 19:38:00,
2013-01-26 14:43:00,32.9,4.2,30.00,West,270,1.6,3.8,29,0.01,,,0.02,pywws,2013-01-26 19:43:00,
2013-01-26 14:49:00,32.9,2.6,30.00,NW,315,2.2,3.8,27,0.01,,,0.02,pywws,2013-01-26 19:49:00,
2013-01-26 14:54:00,32.5,3.1,30.00,NW,315,2.2,3.1,28,0.00,,,0.02,pywws,2013-01-26 19:54:00,
2013-01-26 15:00:00,33.4,5.4,30.01,North,0,2.2,3.8,30,0.00,,,0.02,pywws,2013-01-26 20:00:00,
2013-01-26 15:06:00,32.9,2.6,30.01,North,0,0.7,1.6,27,0.00,,,0.02,pywws,2013-01-26 20:06:00,
2013-01-26 15:11:00,31.8,3.2,30.01,NE,45,1.6,3.8,29,0.00,,,0.02,pywws,2013-01-26 20:11:00,
2013-01-26 15:17:00,30.9,3.2,30.01,NW,315,2.2,3.1,30,0.00,,,0.02,pywws,2013-01-26 20:17:00,
2013-01-26 15:22:00,30.2,1.8,30.01,North,0,1.6,2.2,29,0.00,,,0.02,pywws,2013-01-26 20:22:00,
2013-01-26 15:28:00,30.2,1.8,30.02,NW,315,1.6,3.1,29,0.00,,,0.02,pywws,2013-01-26 20:28:00,
2013-01-26 15:34:00,28.4,1.0,30.02,North,0,2.2,3.1,30,0.00,,,0.02,pywws,2013-01-26 20:34:00,
2013-01-26 15:39:00,27.3,0.7,30.02,North,0,1.6,2.2,31,0.00,,,0.02,pywws,2013-01-26 20:39:00,
2013-01-26 15:45:00,27.1,-1.6,30.02,NW,315,0.7,1.6,28,0.00,,,0.02,pywws,2013-01-26 20:45:00,
2013-01-26 15:50:00,27.5,0.9,30.02,North,0,1.6,3.1,31,0.00,,,0.02,pywws,2013-01-26 20:50:00,
2013-01-26 15:56:00,27.3,0.0,30.02,NW,315,1.6,2.2,30,0.00,,,0.02,pywws,2013-01-26 20:56:00,
2013-01-26 16:02:00,27.7,1.0,30.02,NW,315,2.2,3.8,31,0.00,,,0.02,pywws,2013-01-26 21:02:00,
2013-01-26 16:07:00,27.5,-0.5,30.02,NW,315,1.6,2.2,29,0.00,,,0.02,pywws,2013-01-26 21:07:00,
2013-01-26 16:13:00,27.1,-1.6,30.02,NNW,338,3.1,4.5,28,0.00,,,0.02,pywws,2013-01-26 21:13:00,
2013-01-26 16:18:00,27.1,-1.6,30.02,North,0,2.2,3.1,28,0.00,,,0.02,pywws,2013-01-26 21:18:00,
2013-01-26 16:24:00,27.0,-2.5,30.03,NW,315,3.8,6.0,27,0.00,,,0.02,pywws,2013-01-26 21:24:00,
2013-01-26 16:30:00,26.1,-2.5,30.04,NW,315,3.1,4.5,28,0.00,,,0.02,pywws,2013-01-26 21:30:00,
2013-01-26 16:35:00,25.3,-0.3,30.03,NE,45,3.1,4.5,32,0.00,,,0.02,pywws,2013-01-26 21:35:00,
2013-01-26 16:41:00,25.0,-0.7,30.04,North,0,3.1,3.8,32,0.00,,,0.02,pywws,2013-01-26 21:41:00,
2013-01-26 16:46:00,24.6,-0.3,30.03,NW,315,0.7,1.6,33,0.00,,,0.02,pywws,2013-01-26 21:46:00,
2013-01-26 16:52:00,24.3,0.6,30.04,West,270,3.1,4.5,35,0.00,,,0.02,pywws,2013-01-26 21:52:00,
2013-01-26 16:58:00,23.9,0.9,30.05,NE,45,1.6,3.1,36,0.00,,,0.02,pywws,2013-01-26 21:58:00,
2013-01-26 17:03:00,23.4,-0.2,30.05,SSW,202,2.2,5.4,35,0.00,,,0.02,pywws,2013-01-26 22:03:00,
2013-01-26 17:09:00,22.8,-1.3,30.06,NW,315,2.2,3.8,34,0.00,,,0.02,pywws,2013-01-26 22:09:00,
2013-01-26 17:14:00,22.5,-2.2,30.06,NW,315,3.1,4.5,33,0.00,,,0.02,pywws,2013-01-26 22:14:00,
2013-01-26 17:20:00,22.1,-0.7,30.07,NW,315,1.6,2.2,36,0.00,,,0.02,pywws,2013-01-26 22:20:00,
2013-01-26 17:26:00,21.7,-0.5,30.07,NE,45,1.6,2.2,37,0.00,,,0.02,pywws,2013-01-26 22:26:00,
2013-01-26 17:31:00,21.4,-0.8,30.07,North,0,1.6,3.1,37,0.00,,,0.02,pywws,2013-01-26 22:31:00,
2013-01-26 17:37:00,21.2,-1.5,30.08,NW,315,3.1,5.4,36,0.00,,,0.02,pywws,2013-01-26 22:37:00,
2013-01-26 17:42:00,20.8,-1.3,30.08,NW,315,2.2,3.1,37,0.00,,,0.02,pywws,2013-01-26 22:42:00,
2013-01-26 17:48:00,20.8,-1.3,30.08,NW,315,2.2,4.5,37,0.00,,,0.02,pywws,2013-01-26 22:48:00,
2013-01-26 17:54:00,20.7,-1.4,30.08,North,0,2.2,4.5,37,0.00,,,0.02,pywws,2013-01-26 22:54:00,
2013-01-26 17:59:00,20.5,-1.0,30.08,NW,315,4.5,6.9,38,0.00,,,0.02,pywws,2013-01-26 22:59:00,
2013-01-26 18:05:00,20.5,-1.0,30.09,West,270,3.8,6.9,38,0.00,,,0.02,pywws,2013-01-26 23:05:00,
2013-01-26 18:10:00,20.5,-1.6,30.09,West,270,2.2,3.8,37,0.00,,,0.02,pywws,2013-01-26 23:10:00,
2013-01-26 18:16:00,20.3,-1.2,30.10,North,0,1.6,3.8,38,0.00,,,0.02,pywws,2013-01-26 23:16:00,
2013-01-26 18:22:00,20.1,-0.8,30.11,NE,45,3.1,5.4,39,0.00,,,0.02,pywws,2013-01-26 23:22:00,
2013-01-26 18:27:00,20.1,-0.8,30.11,NW,315,1.6,3.1,39,0.00,,,0.02,pywws,2013-01-26 23:27:00,
2013-01-26 18:33:00,19.9,-1.5,30.11,North,0,0.7,1.6,38,0.00,,,0.02,pywws,2013-01-26 23:33:00,
2013-01-26 18:38:00,19.8,-1.7,30.11,NW,315,1.6,3.1,38,0.00,,,0.02,pywws,2013-01-26 23:38:00,
2013-01-26 18:44:00,19.6,-1.3,30.10,NE,45,1.6,3.8,39,0.00,,,0.02,pywws,2013-01-26 23:44:00,
2013-01-26 18:50:00,19.6,-1.3,30.10,North,0,3.8,7.6,39,0.00,,,0.02,pywws,2013-01-26 23:50:00,
2013-01-26 18:55:00,19.4,-0.4,30.11,West,270,1.6,3.1,41,0.00,,,0.02,pywws,2013-01-26 23:55:00,
2013-01-26 19:01:00,19.2,-2.2,30.11,NE,45,2.2,4.5,38,0.00,,,0.02,pywws,2013-01-27 00:01:00,
2013-01-26 19:06:00,19.2,-2.7,30.10,SW,225,2.2,3.8,37,0.00,,,0.02,pywws,2013-01-27 00:06:00,
2013-01-26 19:12:00,19.0,-2.3,30.11,NW,315,0.7,2.2,38,0.00,,,0.02,pywws,2013-01-27 00:12:00,
2013-01-26 19:18:00,18.9,-2.5,30.11,North,0,1.6,2.2,38,0.00,,,0.02,pywws,2013-01-27 00:18:00,
2013-01-26 19:23:00,18.9,-3.1,30.11,North,0,0.7,2.2,37,0.00,,,0.02,pywws,2013-01-27 00:23:00,
2013-01-26 19:29:00,18.7,-2.1,30.11,NW,315,2.2,3.8,39,0.00,,,0.02,pywws,2013-01-27 00:29:00,
2013-01-26 19:34:00,18.9,-3.1,30.11,NW,315,2.2,3.1,37,0.00,,,0.02,pywws,2013-01-27 00:34:00,
2013-01-26 19:40:00,18.7,-2.7,30.12,NW,315,1.6,2.2,38,0.00,,,0.02,pywws,2013-01-27 00:40:00,
2013-01-26 19:46:00,18.7,-3.2,30.12,North,0,1.6,2.2,37,0.00,,,0.02,pywws,2013-01-27 00:46:00,
2013-01-26 19:51:00,18.1,-1.6,30.12,NW,315,1.6,3.1,41,0.00,,,0.02,pywws,2013-01-27 00:51:00,
2013-01-26 19:57:00,18.1,-1.6,30.12,NNE,22,3.8,4.5,41,0.00,,,0.02,pywws,2013-01-27 00:57:00,
2013-01-26 20:02:00,18.1,-2.6,30.12,West,270,3.1,5.4,39,0.00,,,0.02,pywws,2013-01-27 01:02:00,
2013-01-26 20:08:00,18.0,-2.8,30.13,West,270,1.6,3.1,39,0.00,,,0.02,pywws,2013-01-27 01:08:00,
2013-01-26 20:14:00,17.8,-1.9,30.13,NW,315,1.6,1.6,41,0.00,,,0.02,pywws,2013-01-27 01:14:00,
2013-01-26 20:19:00,17.6,-2.0,30.13,NW,315,3.1,4.5,41,0.00,,,0.02,pywws,2013-01-27 01:19:00,
2013-01-26 20:25:00,17.8,-1.9,30.14,NW,315,0.7,2.2,41,0.00,,,0.02,pywws,2013-01-27 01:25:00,
2013-01-26 20:30:00,17.6,-2.0,30.14,SE,135,2.2,2.2,41,0.00,,,0.02,pywws,2013-01-27 01:30:00,
2013-01-26 20:36:00,17.4,-1.7,30.14,NW,315,1.6,2.2,42,0.00,,,0.02,pywws,2013-01-27 01:36:00,
2013-01-26 20:42:00,17.4,-1.7,30.15,North,0,1.6,3.1,42,0.00,,,0.02,pywws,2013-01-27 01:42:00,
2013-01-26 20:47:00,17.6,-2.0,30.15,NNW,338,1.6,2.2,41,0.00,,,0.02,pywws,2013-01-27 01:47:00,
2013-01-26 20:53:00,17.4,-1.7,30.15,North,0,2.2,3.1,42,0.00,,,0.02,pywws,2013-01-27 01:53:00,
2013-01-26 20:58:00,17.4,-1.7,30.16,NNE,22,1.6,2.2,42,0.00,,,0.02,pywws,2013-01-27 01:58:00,
2013-01-26 21:04:00,17.4,-1.7,30.16,North,0,0.7,1.6,42,0.00,,,0.02,pywws,2013-01-27 02:04:00,
2013-01-26 21:10:00,17.1,-2.0,30.16,NW,315,1.6,3.8,42,0.00,,,0.02,pywws,2013-01-27 02:10:00,
2013-01-26 21:15:00,17.1,-2.0,30.17,NW,315,1.6,3.1,42,0.00,,,0.02,pywws,2013-01-27 02:15:00,
2013-01-26 21:21:00,17.1,-2.0,30.16,North,0,0.7,1.6,42,0.00,,,0.02,pywws,2013-01-27 02:21:00,
2013-01-26 21:26:00,17.1,-2.0,30.17,NW,315,0.7,1.6,42,0.00,,,0.02,pywws,2013-01-27 02:26:00,
2013-01-26 21:32:00,16.9,-2.2,30.17,NW,315,1.6,2.2,42,0.00,,,0.02,pywws,2013-01-27 02:32:00,
2013-01-26 21:38:00,16.5,-2.0,30.17,NW,315,0.7,2.2,43,0.00,,,0.02,pywws,2013-01-27 02:38:00,
2013-01-26 21:43:00,16.3,-2.2,30.18,NW,315,0.7,1.6,43,0.00,,,0.02,pywws,2013-01-27 02:43:00,
2013-01-26 21:49:00,16.3,-2.2,30.18,NW,315,1.6,2.2,43,0.00,,,0.02,pywws,2013-01-27 02:49:00,
2013-01-26 21:54:00,16.3,-2.2,30.19,North,0,0.7,1.6,43,0.00,,,0.02,pywws,2013-01-27 02:54:00,
2013-01-26 22:00:00,16.2,-2.4,30.19,NW,315,0.7,2.2,43,0.00,,,0.02,pywws,2013-01-27 03:00:00,
2013-01-26 22:06:00,16.0,-2.0,30.18,NW,315,0.7,1.6,44,0.00,,,0.02,pywws,2013-01-27 03:06:00,
2013-01-26 22:11:00,15.8,-1.7,30.19,NW,315,1.6,3.1,45,0.00,,,0.02,pywws,2013-01-27 03:11:00,
2013-01-26 22:17:00,15.6,-1.4,30.19,NW,315,1.6,3.1,46,0.00,,,0.02,pywws,2013-01-27 03:17:00,
2013-01-26 22:22:00,15.8,-1.7,30.20,NW,315,1.6,3.1,45,0.00,,,0.02,pywws,2013-01-27 03:22:00,
2013-01-26 22:28:00,15.8,-1.7,30.20,NW,315,2.2,3.8,45,0.00,,,0.02,pywws,2013-01-27 03:28:00,
2013-01-26 22:34:00,15.8,-1.7,30.19,NW,315,1.6,3.1,45,0.00,,,0.02,pywws,2013-01-27 03:34:00,
2013-01-26 22:39:00,15.6,-1.0,30.20,NW,315,1.6,3.1,47,0.00,,,0.02,pywws,2013-01-27 03:39:00,
2013-01-26 22:45:00,15.6,-1.0,30.20,NW,315,3.1,4.5,47,0.00,,,0.02,pywws,2013-01-27 03:45:00,
2013-01-26 22:50:00,15.8,-1.3,30.20,North,0,2.2,3.8,46,0.00,,,0.02,pywws,2013-01-27 03:50:00,
2013-01-26 22:56:00,15.8,-1.3,30.20,NW,315,1.6,3.1,46,0.00,,,0.02,pywws,2013-01-27 03:56:00,
2013-01-26 23:02:00,15.6,-1.0,30.20,NW,315,1.6,3.1,47,0.00,,,0.02,pywws,2013-01-27 04:02:00,
2013-01-26 23:07:00,15.6,-1.0,30.20,NW,315,2.2,3.8,47,0.00,,,0.02,pywws,2013-01-27 04:07:00,
2013-01-26 23:13:00,15.6,-0.5,30.20,NW,315,1.6,3.1,48,0.00,,,0.02,pywws,2013-01-27 04:13:00,
2013-01-26 23:18:00,15.6,-0.5,30.20,NW,315,2.2,3.8,48,0.00,,,0.02,pywws,2013-01-27 04:18:00,
2013-01-26 23:24:00,15.6,-0.5,30.20,NW,315,1.6,3.1,48,0.00,,,0.02,pywws,2013-01-27 04:24:00,
2013-01-26 23:30:00,15.4,-0.7,30.20,NW,315,1.6,2.2,48,0.00,,,0.02,pywws,2013-01-27 04:30:00,
2013-01-26 23:35:00,15.4,-0.7,30.21,NW,315,1.6,2.2,48,0.00,,,0.02,pywws,2013-01-27 04:35:00,
2013-01-26 23:41:00,15.3,-0.4,30.20,North,0,1.6,3.1,49,0.00,,,0.02,pywws,2013-01-27 04:41:00,
2013-01-26 23:46:00,15.3,-0.4,30.21,NW,315,0.7,2.2,49,0.00,,,0.02,pywws,2013-01-27 04:46:00,
2013-01-26 23:52:00,15.1,-0.6,30.21,North,0,1.6,3.1,49,0.00,,,0.02,pywws,2013-01-27 04:52:00,
2013-01-26 23:58:00,15.3,0.0,30.21,NW,315,1.6,3.1,50,0.00,,,0.02,pywws,2013-01-27 04:58:00,